Regional Weather Roundup
Issued by NWS

Home | Current Version | Previous Version | Graphics & Text | Print | Product List | Glossary On
Versions: 1 2 3 4 5 6 7 8 9 10 11 12 13 14 15 16 17 18 19 20 21 22 23 24 25 26 27 28 29 30 31 32 33 34 35 36 37 38 39 40 41 42 43 44 45 46 47 48 49 50
000
ASUS45 KABQ 260810
RWRNM
NEW MEXICO REGIONAL WEATHER ROUNDUP
NATIONAL WEATHER SERVICE ALBUQUERQUE NM
200 AM MDT THU APR 26 2018

NOTE: "FAIR" MEANS FEW OR NO CLOUDS BELOW 12,000 FEET AGL WITH NO
       SIGNIFICANT WEATHER OR OBSTRUCTIONS TO VISION.

      THIS PRODUCT IS RELEASED AS TWO VERSIONS.  ONE VERSION NEAR
      THE TOP OF THE HOUR CONTAINING PRELIMINARY DATA FROM ALBUQUERQUE
      AND OTHER STATIONS.  A FINAL VERSION WITH ADDITIONAL DATA IS
      ISSUED ABOUT 10 MINUTES AFTER THE HOUR.

NMZ501-503-504-510>518-260900-
NORTHWEST PLATEAU/NORTHCENTRAL MOUNTAINS

CITY           SKY/WX    TMP DP  RH WIND       PRES   REMARKS
FARMINGTON     FAIR      50  -2  11 W5        30.09F
LOS ALAMOS     FAIR      49  27  41 SW10      30.16F
SANTA FE       FAIR      46  30  53 CALM      30.12F
TAOS           FAIR      45  24  43 CALM      30.16F
ANGEL FIRE     FAIR      22  19  86 CALM      30.18F

$$
NMZ402-403-502-505>509-260900-
WESTCENTRAL MOUNTAINS/SOUTHWEST MOUNTAINS

CITY           SKY/WX    TMP DP  RH WIND       PRES   REMARKS
GALLUP         FAIR      36   3  25 CALM      30.19F
GRANTS         FAIR      40   4  22 NW8       30.19F
SILVER CITY    FAIR      47  28  47 NE5       30.14S

$$
NMZ407-409-411-412-260900-
SOUTHERN DESERTS

CITY           SKY/WX    TMP DP  RH WIND       PRES   REMARKS
DEMING         FAIR      56  33  42 N6        30.08F
LAS CRUCES     FAIR      55  36  49 SE6       30.09F
HOLLOMAN AFB   FAIR      55  37  51 SE9       30.10F
ALAMOGORDO     FAIR      54  36  50 N3        30.10F
T OR C         FAIR      64  34  32 S7        30.07F

$$
NMZ519>523-260900-
CENTRAL VALLEYS/CENTRAL HIGHLANDS

CITY           SKY/WX    TMP DP  RH WIND       PRES   REMARKS
ALBUQUERQUE    FAIR      58  28  32 S5        30.08F
DOUBLE EAGLE   FAIR      55  27  34 S6        30.11F
MORIARTY ARPT  FAIR      38  30  72 N3        30.14F
CLINES CORNERS FAIR      46  32  58 SW14      30.15F
BELEN          FAIR      53  30  42 SW7       30.08S
SOCORRO        FAIR      56  31  38 S9        30.06F

$$
NMZ524>526-539-540-260900-
SOUTHCENTRAL MOUNTAINS

CITY           SKY/WX    TMP DP  RH WIND       PRES   REMARKS
RUIDOSO        NOT AVBL

$$
NMZ527>531-260900-
NORTHEAST HIGHLANDS/NORTHEAST PLAINS

CITY           SKY/WX    TMP DP  RH WIND       PRES   REMARKS
LAS VEGAS      FAIR      39  30  70 S14       30.12F WCI  31
RATON          FAIR      40  27  59 N3        30.09F
CLAYTON        FAIR      43  30  60 SW8       30.04F

$$
NMZ532>537-260900-
EASTCENTRAL PLAINS

CITY           SKY/WX    TMP DP  RH WIND       PRES   REMARKS
SANTA ROSA     FAIR      44  31  59 SW3       30.08F
TUCUMCARI      FAIR      48  32  53 SW10      30.04F
CANNON AFB     FAIR      43  30  60 SW6       30.10F
CLOVIS AIRPORT FAIR      39  26  59 SW8       30.10F WCI  33

$$
NMZ028-029-538-260900-
SOUTHEAST PLAINS

CITY           SKY/WX    TMP DP  RH WIND       PRES   REMARKS
ROSWELL        FAIR      48  35  60 S7        30.07F
ARTESIA        FAIR      48  37  66 SW9       30.10F
CARLSBAD       FAIR      49  38  65 S9        30.09F
HOBBS          FAIR      45  37  76 W6        30.11F


$$




USA.gov is the U.S. government's official web portal to all federal, state and local government web resources and services.